Location: Maddington
(51.2000°N, 1.9167°W)
Time: 10:16:01
(UTC+00:00)

NOSS 2-2 (E) - Pass Details

Date: 23 January 2021
Orbit: 465 x 1741 km, 63.3° (Epoch: 16 January)

Event Time Altitude Azimuth Distance (km) Brightness Sun altitude
Rises 17:50:23 0° 307° (NW) 2,786 7.4 -10.5°
Reaches altitude 10° 17:52:48 10° 324° (NW) 2,022 6.4 -10.8°
Maximum altitude 17:56:26 23° 17° (NNE) 1,564 5.3 -11.4°
Enters shadow 17:59:33 15° 58° (ENE) 2,152 5.7 -11.8°
